Tampa, FL

5:20 PM EDT on July 26, 2016 (GMT -0400)
MacDill Air Force Base

Weather History for KMCF - October, 2012

Change the Weather History Date:

Sunday, October 28, 2012

  Actual Average Record
Temperature  
Mean Temperature 69 °F -  
Max Temperature 75 °F 80 °F 93 °F (2010)
Min Temperature 64 °F 63 °F 48 °F (2008)
Cooling Degree Days 4    
Growing Degree Days 19 (Base 50)    
Moisture  
Dew Point 62 °F    
Average Humidity 76    
Maximum Humidity 88    
Minimum Humidity 59    
Precipitation  
Precipitation 0.00 in - - ()
Sea Level Pressure  
Sea Level Pressure 29.76 in    
Wind  
Wind Speed 11 mph (NNW)    
Max Wind Speed 18 mph    
Max Gust Speed 25 mph    
Visibility 10 miles    
Events      
Averages and records for this station are not official NWS values.
T = Trace of Precipitation, MM = Missing Value Source: NWS Daily Summary

Daily Weather History Graph

Daily Weather History Graph

Search for Another Location

Airport or City:

Trip Planner

Search our weather history database for the weather conditions in past years. The results will help you decide how hot, cold, wet, or windy it might be!

Date:

Astronomy

Oct. 28, 2012 Rise Set
Actual Time 7:38 AM EDT 6:48 PM EDT
Civil Twilight 7:14 AM EDT 7:12 PM EDT
Nautical Twilight 6:47 AM EDT 7:40 PM EDT
Astronomical Twilight 6:19 AM EDT 8:07 PM EDT
Moon 6:05 PM EDT (10/28) 6:33 AM EDT (10/28)
Length of Visible Light 11h 57m
Length of Day
11h 09m
Waxing Gibbous, 99% of the Moon is Illuminated
Oct 28
Waxing Gibbous
Oct 29
Full
Nov 6
Last Quarter
Nov 13
New
Nov 20
First Quarter

Hourly Weather History & Observations

Time (EDT) Temp. Dew Point Humidity Pressure Visibility Wind Dir Wind Speed Gust Speed Precip Events Conditions
12:55 AM 73.0 °F 68.7 °F 86% 29.74 in 10.0 mi North 8.1 mph - N/A   Partly Cloudy
1:55 AM 72.3 °F 68.0 °F 86% 29.74 in 10.0 mi North 9.2 mph - N/A   Clear
2:55 AM 71.8 °F 67.5 °F 86% 29.73 in 10.0 mi North 10.4 mph 16.1 mph N/A   Scattered Clouds
3:55 AM 71.1 °F 67.5 °F 88% 29.73 in 10.0 mi North 10.4 mph - N/A   Mostly Cloudy
4:11 AM 71.6 °F 68.0 °F 88% 29.73 in 10.0 mi North 10.4 mph - N/A   Mostly Cloudy
4:12 AM 71.6 °F 68.0 °F 88% 29.73 in 10.0 mi North 11.5 mph - N/A   Mostly Cloudy
4:13 AM 71.6 °F 68.0 °F 88% 29.73 in 10.0 mi North 11.5 mph - N/A   Mostly Cloudy
4:49 AM 69.8 °F 66.2 °F 88% 29.73 in 10.0 mi North 9.2 mph - N/A   Scattered Clouds
4:55 AM 70.3 °F 66.7 °F 88% 29.73 in 10.0 mi North 8.1 mph - N/A   Scattered Clouds
5:55 AM 70.3 °F 66.6 °F 88% 29.73 in 10.0 mi NNW 12.7 mph 19.6 mph N/A   Scattered Clouds
6:55 AM 69.8 °F 64.0 °F 82% 29.75 in 10.0 mi NNW 13.8 mph 25.3 mph N/A   Partly Cloudy
7:55 AM 69.8 °F 64.0 °F 82% 29.77 in 10.0 mi NNW 10.4 mph 20.7 mph N/A   Overcast
8:55 AM 69.6 °F 63.7 °F 81% 29.78 in 10.0 mi NNW 11.5 mph - N/A   Overcast
9:55 AM 71.8 °F 64.6 °F 78% 29.79 in 10.0 mi NNW 12.7 mph 18.4 mph N/A   Scattered Clouds
10:55 AM 73.4 °F 62.6 °F 69% 29.80 in 10.0 mi NNW 15.0 mph 23.0 mph N/A   Mostly Cloudy
11:55 AM 74.8 °F 61.7 °F 64% 29.79 in 10.0 mi NNW 16.1 mph 23.0 mph N/A   Mostly Cloudy
12:55 PM 74.3 °F 59.4 °F 60% 29.78 in 10.0 mi NW 13.8 mph - N/A   Mostly Cloudy
1:55 PM 73.9 °F 58.8 °F 59% 29.76 in 10.0 mi NNW 11.5 mph 19.6 mph N/A   Mostly Cloudy
2:55 PM 72.5 °F 58.6 °F 62% 29.75 in 10.0 mi NNW 15.0 mph 21.9 mph N/A   Overcast
3:55 PM 70.0 °F 59.2 °F 68% 29.75 in 10.0 mi NW 12.7 mph 21.9 mph N/A   Overcast
4:55 PM 68.9 °F 59.2 °F 71% 29.75 in 10.0 mi NW 12.7 mph 18.4 mph N/A   Overcast
5:55 PM 68.5 °F 55.9 °F 64% 29.76 in 10.0 mi NW 12.7 mph - N/A   Partly Cloudy
6:55 PM 66.6 °F 57.4 °F 72% 29.77 in 10.0 mi NW 13.8 mph 18.4 mph N/A   Scattered Clouds
7:55 PM 64.9 °F 56.1 °F 73% 29.78 in 10.0 mi NW 11.5 mph - N/A   Scattered Clouds
8:55 PM 65.5 °F 56.7 °F 73% 29.79 in 10.0 mi North 16.1 mph 23.0 mph N/A   Mostly Cloudy
9:55 PM 65.5 °F 55.2 °F 69% 29.81 in 10.0 mi NNW 15.0 mph 25.3 mph N/A   Overcast
10:55 PM 65.3 °F 55.2 °F 70% 29.83 in 10.0 mi NNW 13.8 mph 23.0 mph N/A   Overcast
11:55 PM 65.1 °F 52.9 °F 65% 29.83 in 10.0 mi NNW 18.4 mph 25.3 mph N/A   Overcast